Location: Potomac
(46.8816°N, 113.5795°W)
Time: 21:46:23
(UTC+00:00)

JY1SAT - Pass Details

Date: 29 June 2022
Orbit: 563 x 587 km, 97.6° (Epoch: 11 August)

Event Time Altitude Azimuth Distance (km) Brightness Sun altitude
Exits shadow 05:40:18 12° 204° (SSW) 1,759 ? -15.0°
Maximum altitude 05:43:35 31° 264° (W) 1,041 ? -15.3°
Drops below altitude 10° 05:47:19 10° 328° (NNW) 1,924 ? -15.6°
Sets 05:49:42 0° 338° (NNW) 2,829 ? -15.8°
